Location: Eboldshausen
(51.7766°N, 10.0050°E)
Time: 06:16:57
(UTC+00:00)

Cosmos 407 Rocket - Pass Details

Date: 15 November 2025
Orbit: 740 x 780 km, 74.0° (Epoch: 12 December)

Event Time Altitude Azimuth Distance (km) Brightness Sun altitude
Rises 18:22:05 0° 224° (SW) 3,209 7.3 -26.5°
Reaches altitude 10° 18:24:33 10° 230° (SW) 2,281 6.5 -26.9°
Maximum altitude 18:29:30 44° 303° (WNW) 1,031 4.4 -27.6°
Enters shadow 18:31:52 27° 358° (N) 1,421 4.9 -28.0°
